Starlink 3858

operational
NORAD ID: 52553 Int'l Des: 2022-051 Owner: SPXS Country: US Constellation: starlink
LEOCIRCULAR

关于 Starlink 3858

正在加载描述...

实时位置

正在加载3D地球...

即将过境

高度历史

Altitude vs Time

uPlot chart will show altitude changes over time

两行轨道根数

1 52553U 22051W 25347.65683575 .00001233 00000-0 95548-4 0 9990
2 52553 53.2166 154.9955 0001209 87.5037 272.6094 15.08835501198469
Epoch: Dec 13, 2025 • Age: 20 hours

当前状态

高度 559.1 km
速度 7.58 km/s
星下点 -53.23°S, 162.78°E
发射日期 May 13, 2022
运行时间 3.5 years
类型 internet

技术详情

分类 Payload
质量 297.00 kg
干质量 275.00 kg
总质量 297.00 kg
长度 0.20 m
直径 2.80 m
跨度 9.00 m
形状 Box + pan
制造商 SPXS
平台类型 Starlink
阶段状态 In Orbit
所有者/国家 SPXS/US

大型星座

Loading constellations...